Regional Weather Roundup
Issued by NWS San Diego, CA

Home | Current Version | Previous Version | Text Only | Print | Product List | Glossary On
Versions: 1 2 3 4 5 6 7 8 9 10 11 12 13 14 15 16 17 18 19 20 21 22 23 24 25 26 27 28 29 30 31 32 33 34 35 36 37 38 39 40 41 42 43 44 45 46 47 48 49 50
000
ASUS46 KSGX 240711
RWRSGX

SAN DIEGO HOURLY WEATHER ROUNDUP
NATIONAL WEATHER SERVICE SAN DIEGO CA
1100 PM PST TUE JAN 23 2018

NOTE: "FAIR" INDICATES FEW OR NO CLOUDS BELOW 12,000 FEET WITH NO
SIGNIFICANT WEATHER AND/OR OBSTRUCTIONS TO VISIBILITY.

CAZ042-043-060-061-PZZ750-775-240800-

GREATER SAN DIEGO AREA

CITY           SKY/WX    TMP DP  RH WIND       PRES   REMARKS
SAN DIEGO AP   CLEAR     55  34  45 CALM      30.14S
NATIONAL CITY    N/A     52  38  58 CALM      30.14F
CHULA VISTA      N/A     49  40  70 CALM      30.04F
IMPERIAL BEACH CLEAR     50  39  66 NE3       30.13S
BROWN FIELD    CLEAR     48  34  58 E9        30.12F
MIRAMAR MCAS   CLEAR     51  33  50 E7        30.12S
MONTGOMERY FLD CLEAR     51  31  46 CALM      30.13S
GILLESPIE FLD  FAIR      46  32  57 CALM      30.13S

$$

NORTH SAN DIEGO COUNTY

CITY           SKY/WX    TMP DP  RH WIND       PRES   REMARKS
OCEANSIDE AP   CLEAR     49  34  56 NE7       30.12S
OCEANSIDE HBR    N/A     52  32  47 CALM      30.14F
VISTA            N/A     48  31  51 CALM      30.11S
CARLSBAD       CLEAR     52  29  41 CALM      30.11F
DEL MAR          N/A     58  31  36 CALM      30.14S
LA JOLLA SCRIP   N/A     61  34  36 E3        30.12S
FALLBROOK        N/A     58  26  30 CALM      30.13S
ESCONDIDO        N/A     50  34  53 CALM      30.14F
SAN MARCOS       N/A     60  25  26 CALM      30.15F
POWAY            N/A     44  32  63 CALM      30.14S

$$

EAST SAN DIEGO COUNTY

CITY           SKY/WX    TMP DP  RH WIND       PRES   REMARKS
RAMONA         CLEAR     45  24  43 NE3       30.14S
SANTEE LAKES     N/A     46  35  64 CALM      30.13F
LA MESA          N/A     58  35  42 CALM      30.07S
JAMUL            N/A     47  27  46 CALM      30.14F
DESCANSO N       N/A     54  15  21 NE12      30.09F
MT. LAGUNA OBS   N/A     43   3  18 E10       30.18S
CAMPO            N/A     50  20  30 N3        30.14S

$$

ORANGE COUNTY AND THE LOS ANGELES BASIN

CITY           SKY/WX    TMP DP  RH WIND       PRES   REMARKS
JOHN WAYNE AP  CLEAR     53  38  56 CALM      30.12F
LAGUNA BEACH     N/A     46  36  67 CALM      30.07F
LAKE FOREST FR   N/A     56  22  26 NE2       30.02
HUNTINGTON BCH   N/A     46  42  84 CALM      30.13S
LOS ALAMITOS   FAIR      49  37  62 N3        30.12S
FULLERTON      CLEAR     52  35  52 CALM      30.12F
LONG BEACH     CLEAR     53  46  77 NW3       30.13S
L.A. AP        CLEAR     57  37  47 NE5       30.14S
L.A. DOWNTOWN  CLEAR     58  29  33 CALM      30.13F

$$

THE INLAND EMPIRE

CITY           SKY/WX    TMP DP  RH WIND       PRES   REMARKS
CORONA         CLEAR     52  25  35 E6        30.16S
CHINO          CLEAR     50  32  50 E3        30.17S
ONTARIO        PTCLDY    52  29  41 E3        30.15F
SAN BERNARDINO FAIR      49  29  46 E3        30.17F
RIVERSIDE AP   CLEAR     54  26  34 NE6       30.16S
MORENO VALLEY    N/A     52  33  49 CALM      28.29S
MARCH ARB      CLEAR     55  17  22 NE7       30.16F
HORSETHIEF CYN   N/A     51  18  26 W5        30.18S
PERRIS           N/A     56  29  34 NE3       30.11S
HEMET EAST       N/A     52  10  19 CALM      30.22F
FRENCH VALLEY  FAIR      48  25  40 N7        30.17S
TEMECULA         N/A     51  31  46 W2        30.20S

$$

SAN BERNARDINO AND RIVERSIDE COUNTY MOUNTAINS

CITY           SKY/WX    TMP DP  RH WIND       PRES   REMARKS
BIG BEAR AP    CLEAR     19   7  58 CALM      30.29S

$$

SOUTHERN DESERT INCLUDING THE COACHELLA VALLEY

CITY           SKY/WX    TMP DP  RH WIND       PRES   REMARKS
PALM SPRINGS   CLEAR     56  25  30 W3        30.21R
THOUSAND PALMS   N/A     51  26  36 W2        30.17S
PALM DESERT      N/A     50  33  51 CALM        N/A
THERMAL        CLEAR     44  28  53 CALM      30.18R
BLYTHE         CLEAR     53  21  28 CALM      30.20S
IMPERIAL AP    CLEAR     48  20  32 W7        30.17F
EL CENTRO NAS  CLEAR     45  13  27 W9        30.20S
YUMA AZ        CLEAR     53  19  26 N6        30.16F
MEXICALI       CLEAR     50  23  34 N6        30.18S

$$

UPPER DESERT

CITY           SKY/WX    TMP DP  RH WIND       PRES   REMARKS
VICTORVILLE AP CLEAR     34  18  51 CALM      30.25S
HESPERIA         N/A     39  22  51 W3        30.42S
APPLE VALLEY     N/A     29  20  68 CALM      30.35R
PALMDALE       CLEAR     37  24  59 S3        30.25S
LANCASTER      CLEAR     31  22  69 W5        30.26S WCI  26
EDWARDS AFB    CLEAR     37  18  47 CALM      30.23S
DAGGETT        CLEAR     43  22  43 CALM      30.25S
29 PALMS N     CLEAR     43  21  41 CALM      30.31S
NEEDLES        CLEAR     52  23  32 NW6       30.23S

$$

REGIONAL REPORTS

CITY           SKY/WX    TMP DP  RH WIND       PRES   REMARKS
SANTA BARBARA  CLEAR     45  39  79 CALM      30.14S
SANDBERG       CLEAR     48  17  29 E15       30.25S
LAS VEGAS NV   PTCLDY    46  28  49 S3        30.27S
PHOENIX AZ     CLEAR     53  17  24 CALM      30.18R
TIJUANA        CLEAR     59  21  23 NE8       30.14
ENSENADA NW      N/A     63  32  31 CALM      30.03S

$$

OFFSHORE ISLANDS

CITY           SKY/WX    TMP DP  RH WIND       PRES   REMARKS
CATALINA ARPT    N/A     61  26  26 NW6       30.17S
SAN NICOLAS IS CLEAR     54  27  35 W10       30.14S

$$

MARINE AND OFFSHORE BUOY REPORTS

STATION/POSITION SKY/WX   TEMP    WIND        PRES    VSBY  SWELL
                          AIR SEA DIR/SP/G                  HT/PER/DIR
                          (F)     (DEG/KT/KT) (MB)    (MI)  (FT/S/D)
TANNER BANKS               59 59              1020.1F
S CLEMENTE BASIN           61 61  360/  8/ 10 1020.1F         7/290/13
SAN NICOLAS IS.               59                N/A           7/310/13
SO. S. ROSA ISLA           56 57  310/ 12/ 14 1020.4F         7/290/14
W. S. BARBARA CH           56 57  310/ 12/ 16 1020.2F         7/300/12
M. S. BARBARA CH           58 59  240/  4/  6 1021.2F         5/250/14
S. MONICA BASIN               60  320/ 10/ 10 1019.9F         3/270/11
S PEDRO CHANNEL               60                N/A           3/270/13
CMP PENDLETON NS              59                N/A           2/250/13
OCEANSIDE OFFSHR              61                N/A           2/270/12
TORREY PINES OTR              61                N/A           2/280/13
SAN DIEGO BAY                 64              1020.5F
POINT LOMA SOUTH              61                N/A           3/280/13

$$




USA.gov is the U.S. government's official web portal to all federal, state and local government web resources and services.